Location: *
(51.2167°N, 10.0667°E)
Time: 20:19:10
(UTC+00:00)

SL-16 R/B - Pass Details

Date: 12 December 2019
Orbit: 840 x 849 km, 71.0° (Epoch: 21 January)

Event Time Altitude Azimuth Distance (km) Brightness Sun altitude
Rises 18:37:19 0° 233° (SW) 3,402 6.1 -30.8°
Reaches altitude 10° 18:39:54 10° 241° (WSW) 2,471 5.3 -31.2°
Maximum altitude 18:45:15 41° 311° (NW) 1,212 3.2 -32.0°
Enters shadow 18:46:01 39° 331° (NNW) 1,252 3.2 -32.2°
